Home   Weather   Winamac   Past weeks

Flag for USA Past Weather in Winamac, Indiana, USA — Yesterday and Last 2 Weeks

36 °F


Feels Like: 32 °F
Forecast: 34 / 53 °F
Wind: 5 mph from East

Location: Porter County Municipal Airport

Current Time: Oct 25, 2016 at 8:10:23 AM

Latest Report: Oct 25, 2016 at 6:56 AM

Visibility: 10 mi

Pressure: 30.43 "Hg

Humidity: 89%

Dew Point: 33 °F

Location of WinamacLocation

Past Weather in Winamac — Graph


Winamac Temperature Yesterday

Maximum temperature yesterday: 58 °F (at 11:56 AM)
Minimum temperature yesterday: 39 °F (at 10:56 PM)
Average temperature yesterday: 52 °F

High & Low Weather Summary for the Past Weeks

High82 °F (Oct 17, 3:56 PM)97% (Oct 14, 4:56 AM)30.43 "Hg (Oct 14, 4:56 AM)
Low36 °F (Oct 14, 7:56 AM)35% (Oct 11, 5:56 PM)29.55 "Hg (Oct 17, 8:56 PM)
Average58 °F73%30.07 "Hg
* Reported Oct 10 6:56 AM — Oct 25 6:56 AM, Winamac, Weather by CustomWeather, © 2016

Note: Actual official high and low records may vary slightly from our data, if they occured in-between our weather recording intervals... More about our weather records


Winamac Weather History for the Previous 24 Hours

Scroll right to see more
Time TempWeatherWind HumidityBarometerVisibility
6:56 AM
Tue, Oct 25
36 °FClear.5 mph89%30.43 "Hg10 mi
5:56 AM37 °FClear.No wind89%30.43 "Hg10 mi
4:56 AM36 °FClear.No wind89%30.42 "Hg10 mi
3:56 AM36 °FClear.3 mph89%30.42 "Hg10 mi
2:56 AM38 °FClear.3 mph90%30.42 "Hg10 mi
1:56 AM36 °FClear.No wind92%30.42 "Hg7 mi
12:56 AM38 °FClear.No wind90%30.42 "Hg10 mi
11:56 PM
Mon, Oct 24
41 °FClear.No wind86%30.42 "Hg10 mi
10:56 PM39 °FClear.3 mph93%30.42 "Hg10 mi
9:56 PM43 °FClear.No wind82%30.42 "Hg10 mi
8:56 PM43 °FClear.3 mph82%30.41 "Hg10 mi
7:56 PM46 °FClear.No wind73%30.39 "Hg10 mi
6:56 PM49 °FClear.5 mph66%30.39 "Hg10 mi
5:56 PM52 °FClear.9 mph59%30.39 "Hg10 mi
4:56 PM54 °FSunny.9 mph57%30.37 "Hg10 mi
3:56 PM55 °FPassing clouds.13 mph55%30.37 "Hg10 mi
2:56 PM55 °FLight rain. Scattered clouds.10 mph57%30.37 "Hg10 mi
1:56 PM55 °FLight rain. Broken clouds.9 mph62%30.37 "Hg10 mi
12:56 PM56 °FLight rain. Partly sunny.13 mph53%30.38 "Hg10 mi
11:56 AM58 °FLight rain. Partly sunny.N/A51%30.36 "HgN/A
10:56 AM54 °FLight rain. Overcast.12 mph57%30.35 "Hg10 mi
9:56 AM54 °FLight rain. Overcast.9 mph62%30.32 "Hg10 mi
8:56 AM53 °FLight rain. Partly sunny.6 mph66%30.30 "Hg10 mi
Weather by CustomWeather, © 2016

See weather overviewHow to use our weather pages